Probability
45 35 55 58 45 52 45 48 45 52 39 32 32 26 23 26 26 26 32 32 29 35 32 35 42 48 48 48 48 45 45 45 45 39 39 35 39 26 32 39 32 32 39
48 48 55 61 52 48 48 58 48 48 42 42 35 35 35 35 29 35 29 32 26 26 35 35 35 42 55 48 45 45 52 42 32 35 35 35 35 32 35 29 23 26 23
55 52 39 45 52 48 45 52 48 42 39 32 39 32 35 39 39 35 39 35 32 29 32 39 39 39 45 42 39 39 45 42 42 35 32 32 32 32 26 23 26 19 19
52 52 45 39 55 48 52 52 48 45 35 32 29 29 26 39 32 35 35 35 45 29 32 35 42 42 45 45 42 39 39 42 39 39 35 26 26 32 29 23 26 13 13
42 42 45 52 42 39 45 42 35 45 42 39 32 39 32 29 32 26 26 23 35 39 42 39 32 35 39 39 42 39 29 26 26 29 26 29 26 23 23 26 16 16 19
48 48 42 52 42 42 39 58 55 55 48 42 26 19 35 35 32 32 29 29 29 32 26 29 48 35 26 29 39 39 26 32 29 26 26 29 29 26 23 19 19 19 16
42 52 32 48 55 45 48 45 48 42 35 48 42 32 32 29 29 35 39 39 29 23 26 35 29 39 42 26 23 29 32 29 29 29 23 19 23 26 29 19 19 19 19
48 35 52 35 39 58 45 48 55 48 35 39 35 26 26 29 42 16 35 42 29 35 26 23 35 42 39 35 19 23 19 19 29 29 32 26 26 26 19 19 16 16 16
48 52 45 48 52 35 45 52 58 55 42 35 29 35 19 26 19 32 35 29 32 32 29 35 32 35 39 39 39 19 23 19 19 23 29 32 26 26 19 19 19 19 23
45 52 52 52 55 45 45 42 39 45 55 39 39 42 29 35 26 23 23 29 29 32 29 19 16 19 35 39 39 16 19 23 19 23 23 23 29 26 19 23 19 19 23
45 45 48 52 48 48 45 48 48 45 42 29 35 29 29 45 26 26 26 23 26 29 29 23 23 23 19 29 32 26 6 3 6 13 16 19 19 23 23 23 23 19 23
42 32 45 48 45 45 45 42 52 42 42 45 42 35 26 19 16 23 19 26 26 26 26 26 23 26 23 26 23 13 6 3 3 3 6 13 16 16 19 19 23 19 19
32 35 32 42 42 42 42 42 42 39 35 39 39 26 29 32 29 26 29 29 23 19 19 23 19 26 19 23 29 10 3 3 3 3 3 3 10 13 16 13 10 16 23
29 39 39 35 35 32 32 39 35 35 35 39 26 29 32 29 32 26 26 32 29 26 16 19 23 16 19 23 13 3 10 0 0 0 3 3 3 3 6 3 3 6 16
32 29 32 35 35 35 35 39 39 45 32 32 26 32 35 19 19 26 35 29 29 23 13 16 23 19 23 32 13 26 32 0 0 0 0 3 3 3 3 3 3 3 3
39 32 29 32 32 32 32 35 32 35 39 32 35 35 32 26 26 26 32 29 19 23 13 13 19 16 19 13 10 16 26 3 0 0 0 0 3 3 3 3 3 0 0
32 32 39 39 35 35 35 35 32 35 32 32 29 32 32 39 23 29 29 26 29 26 26 23 16 16 26 19 16 29 29 29 13 0 0 0 0 0 0 0 0 0 0
32 35 32 35 32 32 32 32 29 32 32 29 32 32 29 32 35 35 32 23 26 32 23 26 23 16 23 23 23 29 19 13 19 0 0 0 0 0 0 0 0 0 0
29 29 29 29 32 32 32 32 32 32 32 32 32 32 32 32 35 32 29 19 23 16 26 23 23 23 19 26 23 23 19 19 10 0 0 0 0 0 0 0 0 0 0
29 29 29 29 29 29 29 29 29 32 32 32 32 32 29 29 29 29 29 29 32 32 32 23 23 19 16 16 23 23 19 19 16 10 0 0 0 0 0 0 0 0 0
32 29 29 29 29 29 19 29 29 26 29 32 29 29 29 29 26 26 19 26 32 32 26 19 13 16 16 19 16 19 19 23 26 19 13 6 6 6 3 0 0 0 0
39 32 32 26 26 13 13 13 16 29 29 26 26 29 29 26 16 6 6 6 10 29 23 26 16 26 26 23 26 19 16 23 26 23 16 13 13 10 13 10 6 0 0
35 35 32 32 29 23 13 10 6 19 26 26 26 29 26 23 23 29 13 0 0 0 3 29 26 29 29 23 23 23 26 23 26 26 23 19 19 16 13 10 3 3 0
35 35 35 35 29 23 13 6 6 23 19 23 23 23 26 26 23 23 26 32 29 32 13 13 29 29 29 29 23 23 23 26 26 29 29 16 23 23 13 16 3 3 0
35 35 32 29 29 23 16 6 0 23 23 23 23 23 19 23 23 10 19 32 29 29 13 3 3 10 6 6 10 16 19 23 16 19 32 23 19 19 23 10 3 3 0
32 29 29 29 29 26 19 6 0 19 23 23 23 23 16 16 19 10 19 23 26 26 23 16 10 3 3 6 0 10 16 19 13 10 13 16 6 10 6 6 6 3 3
Height
5884 5883 5882 5881 5880 5879 5878 5877 5876 5875 5874 5873 5871 5871 5870 5869 5868 5867 5867 5867 5866 5866 5867 5869 5871 5872 5873 5875 5875 5876 5876 5876 5877 5877 5878 5878 5878 5879 5880 5881 5881 5883 5884
5883 5882 5882 5881 5879 5878 5877 5876 5875 5874 5873 5872 5871 5870 5869 5868 5867 5866 5865 5865 5865 5865 5866 5868 5869 5870 5871 5872 5873 5874 5874 5874 5874 5874 5875 5876 5876 5877 5878 5878 5879 5880 5881
5883 5882 5881 5880 5879 5878 5877 5876 5875 5874 5872 5871 5870 5869 5868 5867 5866 5865 5865 5865 5865 5865 5866 5867 5868 5868 5869 5870 5871 5871 5872 5872 5872 5872 5873 5874 5874 5875 5875 5876 5877 5878 5879
5883 5882 5881 5880 5879 5878 5877 5876 5874 5873 5872 5871 5869 5868 5868 5867 5866 5865 5865 5864 5864 5865 5865 5866 5866 5867 5868 5868 5868 5869 5869 5869 5869 5870 5871 5871 5872 5872 5872 5873 5875 5876 5877
5883 5882 5881 5880 5878 5877 5876 5875 5874 5872 5871 5870 5869 5867 5867 5866 5865 5864 5864 5863 5863 5863 5864 5864 5864 5865 5865 5866 5866 5866 5866 5866 5867 5867 5868 5868 5869 5868 5869 5870 5872 5873 5874
5883 5881 5880 5879 5878 5877 5876 5874 5873 5871 5870 5869 5868 5867 5866 5865 5864 5864 5863 5862 5862 5862 5862 5862 5862 5862 5862 5863 5863 5863 5864 5864 5864 5865 5865 5866 5865 5865 5865 5867 5868 5870 5871
5882 5881 5880 5879 5877 5876 5875 5873 5872 5870 5869 5868 5867 5866 5865 5864 5863 5862 5862 5861 5861 5861 5860 5860 5859 5860 5860 5860 5860 5861 5861 5861 5861 5862 5863 5863 5863 5863 5864 5865 5866 5867 5868
5881 5880 5879 5878 5876 5875 5873 5872 5871 5869 5868 5867 5866 5865 5864 5863 5862 5861 5860 5860 5859 5859 5858 5858 5858 5858 5858 5858 5858 5858 5859 5859 5858 5859 5860 5860 5861 5861 5861 5862 5863 5864 5865
5880 5879 5878 5876 5875 5873 5872 5870 5869 5868 5867 5865 5864 5863 5862 5861 5860 5859 5858 5858 5857 5857 5856 5856 5856 5855 5855 5855 5855 5856 5856 5856 5856 5856 5856 5857 5858 5858 5858 5859 5860 5860 5861
5878 5877 5876 5874 5873 5872 5870 5869 5867 5866 5865 5863 5862 5861 5860 5859 5858 5857 5856 5855 5854 5854 5853 5853 5853 5852 5852 5852 5852 5853 5853 5852 5853 5853 5853 5854 5854 5855 5855 5855 5856 5857 5857
5876 5875 5874 5872 5871 5870 5868 5867 5865 5864 5863 5861 5860 5859 5857 5856 5855 5854 5853 5852 5851 5850 5850 5849 5848 5848 5848 5848 5849 5849 5849 5849 5849 5850 5850 5850 5851 5851 5851 5852 5852 5853 5853
5874 5872 5871 5870 5868 5867 5865 5864 5863 5861 5860 5859 5857 5856 5854 5853 5852 5851 5850 5849 5848 5847 5846 5845 5844 5844 5844 5844 5844 5845 5845 5845 5845 5846 5846 5846 5846 5847 5847 5848 5848 5849 5849
5871 5870 5868 5867 5866 5864 5863 5861 5860 5858 5857 5855 5854 5852 5851 5850 5848 5847 5846 5845 5844 5843 5842 5841 5840 5839 5839 5839 5840 5840 5840 5840 5841 5841 5841 5841 5842 5842 5843 5843 5844 5844 5845
5869 5867 5865 5864 5862 5861 5859 5857 5856 5854 5853 5851 5850 5848 5847 5846 5844 5843 5842 5841 5840 5839 5838 5837 5835 5834 5835 5835 5835 5835 5835 5835 5835 5836 5836 5836 5837 5838 5838 5839 5839 5840 5840
5865 5864 5862 5860 5858 5857 5855 5853 5852 5850 5848 5847 5845 5844 5842 5841 5840 5838 5837 5836 5835 5834 5833 5832 5831 5830 5829 5829 5829 5829 5829 5829 5830 5830 5831 5831 5832 5832 5833 5833 5834 5834 5835
5861 5860 5858 5856 5854 5852 5850 5848 5846 5845 5843 5841 5840 5839 5837 5836 5834 5833 5832 5830 5829 5829 5828 5827 5826 5824 5824 5824 5823 5823 5823 5823 5823 5824 5824 5825 5826 5826 5827 5828 5828 5829 5829
5857 5855 5853 5851 5849 5847 5845 5843 5841 5839 5837 5836 5834 5833 5831 5830 5828 5827 5826 5824 5823 5822 5822 5821 5820 5819 5818 5818 5818 5817 5817 5817 5817 5817 5818 5818 5819 5819 5820 5821 5821 5822 5823
5853 5851 5849 5846 5844 5842 5840 5838 5836 5834 5832 5830 5828 5826 5825 5823 5822 5820 5819 5818 5817 5815 5815 5814 5813 5812 5812 5812 5811 5811 5810 5810 5810 5811 5811 5811 5811 5812 5813 5813 5814 5815 5815
5849 5847 5844 5842 5839 5837 5834 5832 5830 5828 5825 5823 5821 5819 5818 5816 5815 5813 5812 5810 5809 5808 5807 5807 5806 5805 5805 5804 5804 5803 5803 5803 5803 5803 5803 5804 5804 5804 5805 5805 5806 5807 5808
5843 5841 5839 5836 5833 5831 5828 5826 5823 5821 5818 5816 5814 5812 5810 5809 5807 5805 5804 5803 5801 5800 5799 5798 5798 5797 5797 5796 5795 5795 5795 5795 5795 5795 5795 5795 5795 5796 5796 5797 5798 5799 5799
5838 5835 5832 5830 5827 5824 5822 5819 5816 5814 5812 5809 5807 5805 5803 5801 5799 5797 5796 5795 5793 5792 5791 5790 5789 5789 5788 5787 5787 5787 5786 5786 5786 5786 5786 5786 5787 5787 5787 5788 5789 5790 5791
5831 5829 5826 5823 5820 5817 5814 5812 5809 5807 5804 5802 5799 5797 5795 5793 5791 5789 5787 5786 5784 5783 5782 5781 5781 5780 5779 5778 5778 5777 5777 5777 5777 5777 5777 5778 5778 5778 5779 5779 5780 5781 5782
5825 5822 5819 5816 5813 5810 5807 5804 5801 5798 5796 5793 5791 5788 5786 5784 5782 5780 5778 5776 5775 5774 5772 5772 5771 5770 5770 5769 5768 5768 5767 5767 5767 5767 5767 5768 5768 5769 5769 5769 5770 5771 5772
5817 5814 5811 5808 5805 5802 5799 5796 5793 5790 5787 5784 5782 5780 5777 5775 5772 5770 5768 5766 5765 5764 5762 5762 5761 5761 5760 5759 5758 5758 5757 5757 5757 5757 5757 5757 5758 5758 5759 5760 5761 5762 5763
5810 5807 5803 5800 5797 5793 5790 5787 5784 5781 5778 5775 5773 5770 5768 5765 5763 5760 5758 5756 5755 5753 5752 5751 5751 5750 5750 5749 5748 5748 5748 5747 5747 5747 5747 5747 5747 5748 5749 5750 5750 5752 5753
5802 5798 5795 5792 5788 5785 5782 5778 5775 5772 5769 5766 5763 5760 5757 5755 5752 5750 5748 5746 5744 5743 5741 5741 5740 5740 5739 5739 5738 5737 5737 5737 5737 5738 5737 5736 5737 5738 5738 5739 5740 5741 5742
Wind_Speed
6 5 5 5 4 4 4 4 4 4 4 5 4 4 4 4 5 6 6 6 6 8 10 10 10 10 10 10 10 11 11 11 11 10 10 11 11 11 11 11 11 10 10
7 7 6 6 5 4 4 5 5 5 5 5 5 5 5 4 4 4 5 6 6 6 8 9 10 10 10 10 10 11 12 12 11 10 10 10 11 11 12 12 12 11 11
7 7 7 7 6 5 5 5 6 6 6 5 5 5 4 4 4 5 5 5 6 6 7 8 10 10 11 11 11 12 12 12 11 10 10 10 11 12 13 13 12 12 12
7 6 7 7 6 5 6 6 7 6 6 5 5 4 4 4 4 4 4 5 6 7 8 9 10 11 11 11 12 12 12 12 12 11 11 11 11 12 13 14 13 13 13
7 6 7 7 7 6 6 7 7 7 6 6 6 6 5 5 4 5 5 6 7 7 8 9 10 11 11 12 12 13 13 12 12 12 12 12 12 13 13 14 14 14 13
7 7 6 6 7 7 7 7 7 7 7 7 7 7 6 5 5 6 6 7 7 7 7 8 10 10 10 11 11 12 13 12 11 12 13 12 13 13 13 14 15 14 14
7 7 6 7 7 7 7 8 8 8 7 7 7 7 7 7 7 7 7 8 8 8 8 9 9 10 10 11 11 12 13 12 13 12 13 13 13 13 13 13 14 14 15
7 7 7 7 8 8 9 9 9 9 8 8 8 8 8 8 8 7 8 8 9 9 10 10 10 11 11 12 11 11 13 14 14 13 13 13 14 14 15 15 15 15 15
7 8 8 8 8 9 9 10 10 9 9 9 9 9 9 9 8 8 8 9 9 10 11 11 12 12 13 13 13 13 14 15 15 15 15 15 15 15 16 16 16 16 16
8 8 9 9 9 10 10 10 10 10 10 10 10 10 10 11 10 10 9 10 11 12 12 12 13 13 14 15 15 15 15 15 15 15 15 16 17 16 17 17 17 17 17
10 9 10 10 10 10 10 11 11 11 11 11 12 12 12 12 12 12 11 12 12 12 13 15 16 16 16 16 16 17 17 17 16 15 15 16 17 18 18 17 17 17 17
11 10 11 11 11 11 12 12 12 12 12 12 12 13 13 13 13 13 13 14 15 15 15 15 17 17 18 18 18 18 18 18 17 16 16 17 18 18 19 18 18 17 17
12 12 12 12 13 13 14 14 14 14 14 14 14 14 14 14 14 14 15 15 16 16 17 17 17 18 18 19 19 19 19 19 19 19 18 18 18 18 19 19 19 19 19
13 13 13 14 15 15 16 15 15 15 16 16 16 16 16 16 16 16 17 17 17 18 17 17 18 18 19 20 20 20 20 21 20 21 20 19 19 19 20 20 20 20 20
14 14 15 16 16 16 17 17 17 18 18 18 18 18 18 18 19 19 19 19 19 20 19 19 20 19 20 20 21 21 22 22 21 22 22 21 21 21 22 22 21 20 20
16 16 17 18 18 19 19 20 19 19 20 20 20 20 20 20 21 21 22 22 22 22 21 21 20 20 21 22 22 22 22 22 22 22 23 23 24 24 23 23 24 23 23
17 18 19 19 20 20 21 21 21 21 21 21 21 22 22 22 23 23 24 24 23 23 23 23 22 22 22 23 23 23 23 23 24 24 24 25 26 26 24 25 25 24 24
19 20 20 20 21 21 22 22 22 22 22 23 23 23 24 24 25 25 25 25 25 25 25 25 25 25 25 25 25 25 24 24 25 25 26 27 27 27 26 26 26 26 26
20 21 21 21 22 22 23 23 24 24 24 24 24 24 25 25 26 26 26 26 27 27 27 27 26 27 27 27 27 27 27 26 26 27 27 27 27 27 28 28 28 27 27
21 22 23 23 23 23 24 25 25 25 25 25 25 25 25 26 26 26 26 26 27 28 28 28 28 28 29 29 29 29 29 29 28 28 28 28 28 29 29 29 30 29 28
23 23 23 24 25 25 26 26 26 26 26 27 27 26 26 26 26 26 27 27 28 28 29 29 30 30 30 30 32 31 31 31 30 30 30 30 29 29 29 30 30 30 30
25 25 25 26 27 27 27 27 27 28 28 28 28 28 28 28 28 28 29 29 29 30 30 31 31 32 32 32 33 33 33 32 31 31 30 29 30 29 29 31 30 29 30
27 28 28 28 28 28 28 28 29 29 30 30 30 30 30 30 30 30 30 31 31 31 32 32 32 33 33 33 33 33 34 33 32 31 31 30 30 30 30 31 31 31 32
28 28 29 29 29 30 29 29 30 30 30 31 31 31 31 31 31 31 32 32 32 33 33 33 33 33 33 33 34 33 33 33 32 31 31 30 31 32 32 32 31 32 32
30 30 31 30 31 31 30 30 30 31 31 31 32 32 32 32 32 32 32 32 33 34 34 34 34 34 34 34 34 34 34 34 33 33 32 31 31 31 32 32 32 33 34
31 31 32 31 31 31 31 31 31 32 32 33 33 34 34 34 33 33 33 33 33 33 33 33 33 34 34 34 35 35 35 35 35 33 32 32 31 31 32 32 33 33 34
Wind_Direction
22 13 359 348 347 337 328 328 329 321 307 309 303 302 304 302 297 277 257 255 252 238 231 230 233 232 236 243 243 244 247 251 252 248 249 248 243 243 242 240 238 237 238
15 8 2 353 346 339 336 332 324 316 310 303 300 299 298 301 304 292 264 253 254 242 226 227 236 237 240 245 245 246 250 253 247 248 248 247 244 244 244 240 240 241 241
11 5 4 1 358 353 347 337 327 322 317 304 300 302 304 306 308 297 278 261 252 243 239 239 244 244 242 244 247 248 253 250 245 244 246 249 248 247 244 243 243 242 240
3 1 1 359 359 354 348 343 336 329 325 318 311 310 307 298 298 296 284 268 259 255 253 247 247 243 244 247 249 251 253 251 245 243 246 249 249 250 246 243 242 241 241
360 356 356 356 356 352 345 338 334 330 327 324 320 315 310 303 292 293 283 275 266 261 256 251 250 247 244 246 252 252 253 251 246 245 246 248 250 250 246 242 240 241 243
351 352 352 347 347 347 340 335 331 331 329 321 315 312 308 303 297 295 277 272 272 265 257 250 245 245 246 247 249 250 252 249 245 245 247 249 249 249 244 244 242 241 246
344 342 342 340 338 339 335 331 327 327 326 319 311 304 302 299 293 290 282 274 270 265 260 254 245 244 245 246 247 250 254 249 245 247 249 250 250 251 247 247 247 248 249
335 333 333 332 332 331 330 325 325 323 322 317 309 299 298 297 296 293 286 280 272 267 265 261 258 253 251 250 251 253 258 258 249 247 249 251 253 252 251 252 253 255 254
324 325 326 327 327 326 327 325 324 320 314 308 305 303 295 295 296 293 288 282 274 270 265 264 262 260 255 254 257 256 260 262 257 253 253 253 254 254 252 254 255 256 254
319 318 318 320 321 322 323 322 322 320 315 309 306 302 298 291 291 293 289 283 278 274 270 266 264 262 261 261 261 260 262 264 262 257 258 257 257 257 255 254 258 257 256
313 314 315 314 314 314 314 315 315 316 315 311 307 303 299 295 291 288 287 286 282 278 274 271 269 266 263 261 262 262 263 264 262 260 259 259 260 260 259 260 259 259 260
310 312 312 311 312 312 313 313 311 309 310 309 307 303 300 297 293 289 287 287 286 282 280 277 272 269 265 261 263 263 261 263 259 260 260 263 262 261 260 259 260 262 263
304 305 306 307 308 308 309 309 307 306 306 304 303 301 298 295 293 291 288 286 287 285 283 282 277 271 269 265 264 264 263 262 260 261 260 262 262 261 261 261 262 261 264
301 301 301 303 305 304 304 304 304 304 302 300 298 296 294 293 292 291 289 288 286 285 284 282 280 276 271 268 267 265 264 263 261 261 258 258 259 260 262 262 263 261 262
304 302 302 302 303 302 301 302 302 300 298 296 294 292 291 290 290 289 287 286 285 284 281 279 278 277 272 270 268 267 265 262 260 261 260 257 259 261 260 260 261 261 261
308 303 302 301 300 299 300 300 300 298 295 294 292 290 289 287 287 287 285 283 282 281 280 278 278 277 273 270 271 269 269 267 263 264 261 258 259 260 260 261 261 262 262
306 305 300 298 298 297 297 297 296 295 294 292 291 289 287 285 284 284 283 282 281 279 276 277 276 276 276 274 271 271 272 271 269 266 264 263 260 259 259 259 260 261 261
304 303 303 301 298 296 295 294 294 294 292 291 291 289 288 286 284 283 282 281 280 279 276 275 275 274 274 273 271 270 271 270 269 266 267 266 263 260 260 260 260 261 262
302 301 301 299 299 298 297 294 292 292 291 291 291 290 288 287 285 283 282 281 279 279 278 276 276 275 274 273 272 272 272 270 269 268 267 267 265 263 262 261 261 261 262
301 301 301 299 298 297 297 297 295 293 293 293 292 291 289 287 285 284 282 281 281 280 278 276 275 275 274 273 273 273 273 273 271 269 268 267 266 264 263 262 262 262 262
302 302 301 299 298 297 297 296 294 294 293 293 293 292 291 289 287 285 283 281 281 280 279 277 277 276 275 274 274 274 273 273 271 270 270 269 267 263 261 262 261 261 262
302 301 300 299 298 297 296 296 294 293 293 292 291 290 290 289 287 286 284 283 281 280 279 278 277 276 276 275 275 274 273 273 270 267 267 267 265 262 261 263 261 260 260
302 302 301 299 298 297 296 296 295 294 293 291 290 289 288 288 287 286 284 282 281 280 278 277 277 276 276 276 275 275 274 273 270 266 263 264 263 262 262 261 259 259 259
303 302 302 300 299 297 296 296 296 295 294 292 291 291 290 289 288 286 284 282 281 279 278 277 276 276 276 275 275 275 274 273 270 267 265 264 263 263 264 262 260 259 260
301 301 301 301 300 298 296 296 296 295 294 294 293 292 291 290 288 287 285 283 281 280 278 277 276 275 274 273 274 274 274 273 272 270 267 265 264 264 263 262 262 261 260
301 301 301 300 300 299 297 296 296 296 295 295 294 293 292 291 289 288 286 283 282 280 278 278 277 275 274 273 273 273 273 272 272 270 268 265 263 263 263 264 264 262 261